Weather History for Chitose AB, Japan

Change the Weather History Date:

Tuesday, February 12, 2013

  Actual Average Record
Temperature  
Mean Temperature 16 °F -  
Max Temperature 28 °F 32 °F 37 °F (1998)
Min Temperature 5 °F 12 °F -9 °F (2005)
Degree Days  
Heating Degree Days 48    
Moisture  
Dew Point 12 °F    
Average Humidity 80    
Maximum Humidity 93    
Minimum Humidity 64    
Precipitation  
Precipitation 0.00 in - - ()
Sea Level Pressure  
Sea Level Pressure 30.20 in    
Wind  
Wind Speed 4 mph ()    
Max Wind Speed 10 mph    
Max Gust Speed -    
Visibility 6.2 miles    
Events Snow    
Averages and records for this station are not official NWS values.
T = Trace of Precipitation, MM = Missing Value Source: Averaged Metar Reports

Daily Weather History Graph

Daily Weather History Graph

Search for Another Location

Airport:

Trip Planner

Search our weather history database for the weather conditions in past years. The results will help you decide how hot, cold, wet, or windy it might be!

Date:

Astronomy

Feb. 12, 2013 Rise Set
Actual Time 6:35 AM JST 5:00 PM JST
Civil Twilight 6:05 AM JST 5:29 PM JST
Nautical Twilight 5:32 AM JST 6:03 PM JST
Astronomical Twilight 4:59 AM JST 6:35 PM JST
Moon 7:07 AM JST (2/12) 7:25 PM JST (2/12)
Length of Visible Light 11h 23m
Length of Day
10h 25m
Waxing Crescent, 4% of the Moon is Illuminated
Feb 12
Waxing Crescent
Feb 18
First Quarter
Feb 26
Full
Mar 5
Last Quarter
Mar 12
New

Hourly Weather History & Observations

Time (JST) Temp. Windchill Dew Point Humidity Pressure Visibility Wind Dir Wind Speed Gust Speed Precip Events Conditions
12:00 AM 14.0 °F 6.5 °F 8.6 °F 79% 30.15 in 6.2 mi NNW 4.6 mph - N/A   Partly Cloudy
12:30 AM 12.2 °F 4.3 °F 8.6 °F 85% 30.15 in 6.2 mi NW 4.6 mph - N/A   Partly Cloudy
1:00 AM 10.4 °F 4.0 °F 6.8 °F 85% 30.15 in 6.2 mi NW 3.5 mph - N/A   Partly Cloudy
1:30 AM 8.6 °F -1.3 °F 5.0 °F 85% 30.18 in 6.2 mi NW 5.8 mph - N/A   Partly Cloudy
2:00 AM 8.6 °F 2.0 °F 6.8 °F 92% 30.18 in 6.2 mi North 3.5 mph - N/A   Scattered Clouds
2:30 AM 6.8 °F -2.0 °F 3.2 °F 85% 30.18 in 6.2 mi NNE 4.6 mph - N/A   Scattered Clouds
3:00 AM 6.8 °F -0.1 °F 5.0 °F 92% 30.18 in 6.2 mi North 3.5 mph - N/A   Partly Cloudy
3:30 AM 6.8 °F -0.1 °F 5.0 °F 92% 30.18 in 6.2 mi NE 3.5 mph - N/A   Partly Cloudy
4:00 AM 5.0 °F -2.1 °F 3.2 °F 92% 30.18 in 6.2 mi North 3.5 mph - N/A   Mostly Cloudy
4:30 AM 6.8 °F -2.0 °F 5.0 °F 92% 30.18 in 6.2 mi NW 4.6 mph - N/A   Mostly Cloudy
5:00 AM 6.8 °F -3.5 °F 5.0 °F 92% 30.21 in 6.2 mi NNW 5.8 mph - N/A   Mostly Cloudy
5:30 AM 8.6 °F -1.3 °F 5.0 °F 85% 30.21 in 6.2 mi NNW 5.8 mph - N/A   Mostly Cloudy
6:00 AM 8.6 °F - 6.8 °F 92% 30.21 in 6.2 mi Calm Calm - N/A   Mostly Cloudy
6:30 AM 6.8 °F -0.1 °F 5.0 °F 92% 30.21 in 6.2 mi NW 3.5 mph - N/A   Partly Cloudy
7:00 AM 5.0 °F -4.1 °F 3.2 °F 92% 30.24 in 6.2 mi NNW 4.6 mph - N/A   Mostly Cloudy
8:00 AM 6.8 °F - 3.2 °F 85% 30.24 in 6.2 mi Variable 1.2 mph - N/A   Partly Cloudy
8:30 AM 12.2 °F - 8.6 °F 85% 30.24 in 6.2 mi Variable 1.2 mph - N/A   Partly Cloudy
9:00 AM 14.0 °F 8.2 °F 8.6 °F 79% 30.24 in 6.2 mi North 3.5 mph - N/A   Mostly Cloudy
9:30 AM 17.6 °F - 10.4 °F 73% 30.24 in 6.2 mi ENE 1.2 mph - N/A   Scattered Clouds
10:00 AM 21.2 °F - 12.2 °F 68% 30.24 in 6.2 mi NW 2.3 mph - N/A   Scattered Clouds
10:30 AM 23.0 °F - 14.0 °F 68% 30.24 in 6.2 mi NNW 2.3 mph - N/A   Scattered Clouds
11:00 AM 24.8 °F 20.5 °F 14.0 °F 64% 30.24 in 6.2 mi North 3.5 mph - N/A   Partly Cloudy
11:30 AM 26.6 °F 21.2 °F 15.8 °F 64% 30.24 in 6.2 mi North 4.6 mph - N/A Snow Light Snow Showers
12:00 PM 28.4 °F - 17.6 °F 64% 30.21 in 6.2 mi Variable 1.2 mph - N/A   Partly Cloudy
12:30 PM 28.4 °F 22.2 °F 17.6 °F 64% 30.21 in 6.2 mi NNW 5.8 mph - N/A Snow Light Snow Showers
1:00 PM 28.4 °F 19.7 °F 17.6 °F 64% 30.21 in 6.2 mi NNW 9.2 mph - N/A Snow Light Snow Showers
1:30 PM 28.4 °F 20.4 °F 17.6 °F 64% 30.21 in 6.2 mi North 8.1 mph - N/A Snow Light Snow Showers
2:00 PM 26.6 °F 16.8 °F 17.6 °F 69% 30.18 in 6.2 mi NNE 10.4 mph - N/A Snow Light Snow Showers
2:30 PM 26.6 °F 18.2 °F 17.6 °F 69% 30.21 in 6.2 mi North 8.1 mph - N/A   Mostly Cloudy
3:00 PM 26.6 °F 17.5 °F 15.8 °F 64% 30.21 in 6.2 mi North 9.2 mph - N/A Snow Light Snow Showers
3:30 PM 26.6 °F 17.5 °F 15.8 °F 64% 30.21 in 6.2 mi North 9.2 mph - N/A Snow Light Snow Showers
4:00 PM 24.8 °F 16.9 °F 15.8 °F 69% 30.21 in 6.2 mi North 6.9 mph - N/A Snow Light Snow Showers
4:30 PM 24.8 °F 16.1 °F 15.8 °F 69% 30.18 in 6.2 mi North 8.1 mph - N/A   Partly Cloudy
5:00 PM 23.0 °F 17.0 °F 17.6 °F 80% 30.18 in 6.2 mi NNW 4.6 mph - N/A   Partly Cloudy
5:30 PM 23.0 °F 15.8 °F 17.6 °F 80% 30.21 in 6.2 mi NNW 5.8 mph - N/A   Mostly Cloudy
6:00 PM 24.8 °F 17.9 °F 17.6 °F 74% 30.18 in 6.2 mi NNW 5.8 mph - N/A   Mostly Cloudy
6:30 PM 21.2 °F 14.9 °F 17.6 °F 86% 30.21 in 6.2 mi NW 4.6 mph - N/A   Mostly Cloudy
7:00 PM 21.2 °F 14.9 °F 17.6 °F 86% 30.18 in 6.2 mi NW 4.6 mph - N/A   Partly Cloudy
7:30 PM 19.4 °F 12.8 °F 15.8 °F 86% 30.18 in 6.2 mi NNW 4.6 mph - N/A   Partly Cloudy
8:00 PM 19.4 °F - 15.8 °F 86% 30.18 in 6.2 mi North 2.3 mph - N/A   Partly Cloudy
8:30 PM 19.4 °F 14.3 °F 15.8 °F 86% 30.18 in 6.2 mi NNW 3.5 mph - N/A   Partly Cloudy
9:00 PM 17.6 °F 12.3 °F 15.8 °F 93% 30.18 in 6.2 mi NNW 3.5 mph - N/A   Scattered Clouds
9:30 PM 17.6 °F - 15.8 °F 93% 30.18 in 6.2 mi Variable 1.2 mph - N/A   Mostly Cloudy
10:00 PM 17.6 °F - 15.8 °F 93% 30.18 in 6.2 mi NE 1.2 mph - N/A Snow Light Snow
10:30 PM 17.6 °F - 14.0 °F 86% 30.15 in 6.2 mi Calm Calm - N/A   Mostly Cloudy
11:00 PM 17.6 °F - 14.0 °F 86% 30.15 in 6.2 mi North 1.2 mph - N/A Snow Light Snow
11:30 PM 17.6 °F 12.3 °F 14.0 °F 86% 30.15 in 6.2 mi NNW 3.5 mph - N/A   Mostly Cloudy